Time,TemperatureF,DewpointF,PressureIn,WindDirection,WindDirectionDegrees,WindSpeedMPH,WindSpeedGustMPH,Humidity,HourlyPrecipIn,Conditions,Clouds,dailyrainin,SoftwareType,DateUTC
2013-09-17 00:01:00,72.0,62.1,30.19,NE,42,0.0,0.0,71,0.00,,,0.00,VWS V13.01,2013-09-17 05:01:00,
2013-09-17 00:06:00,71.8,61.9,30.19,NE,42,0.0,0.0,71,0.00,,,0.00,VWS V13.01,2013-09-17 05:06:00,
2013-09-17 00:11:00,71.6,61.3,30.19,NE,42,0.0,0.0,70,0.00,,,0.00,VWS V13.01,2013-09-17 05:11:00,
2013-09-17 00:16:00,71.5,61.6,30.22,NE,42,0.0,0.0,71,0.00,,,0.00,VWS V13.01,2013-09-17 05:16:00,
2013-09-17 00:21:00,71.3,61.8,30.22,NE,42,0.0,0.0,72,0.00,,,0.00,VWS V13.01,2013-09-17 05:21:00,
2013-09-17 00:26:00,70.9,61.8,30.22,NE,42,0.0,0.0,73,0.00,,,0.00,VWS V13.01,2013-09-17 05:26:00,
2013-09-17 00:31:00,70.7,61.7,30.22,NE,42,0.0,0.0,73,0.00,,,0.00,VWS V13.01,2013-09-17 05:31:00,
2013-09-17 00:36:00,70.6,61.5,30.22,NE,42,0.0,0.0,73,0.00,,,0.00,VWS V13.01,2013-09-17 05:36:00,
2013-09-17 00:41:00,70.2,61.2,30.22,NE,42,0.0,0.0,73,0.00,,,0.00,VWS V13.01,2013-09-17 05:41:00,
2013-09-17 00:46:00,70.0,61.4,30.22,NE,42,0.0,0.0,74,0.00,,,0.00,VWS V13.01,2013-09-17 05:46:00,
2013-09-17 00:51:00,69.8,61.6,30.22,NE,42,0.0,0.0,75,0.00,,,0.00,VWS V13.01,2013-09-17 05:51:00,
2013-09-17 00:56:00,69.5,62.0,30.22,NE,42,0.0,0.0,77,0.00,,,0.00,VWS V13.01,2013-09-17 05:56:00,
2013-09-17 01:01:00,69.3,61.4,30.19,NE,42,0.0,0.0,76,0.00,,,0.00,VWS V13.01,2013-09-17 06:01:00,
2013-09-17 01:06:00,69.1,61.6,30.19,NE,42,0.0,0.0,77,0.00,,,0.00,VWS V13.01,2013-09-17 06:06:00,
2013-09-17 01:11:00,68.9,62.2,30.19,NE,42,0.0,0.0,79,0.00,,,0.00,VWS V13.01,2013-09-17 06:11:00,
2013-09-17 01:16:00,68.8,62.3,30.22,NE,42,0.0,0.0,80,0.00,,,0.00,VWS V13.01,2013-09-17 06:16:00,
2013-09-17 01:21:00,68.8,62.7,30.22,NE,42,0.0,0.0,81,0.00,,,0.00,VWS V13.01,2013-09-17 06:21:00,
2013-09-17 01:25:00,68.8,63.0,30.22,NE,37,0.0,0.0,82,0.00,,,0.00,VWS V13.01,2013-09-17 06:25:00,
2013-09-17 01:30:00,68.9,63.2,30.22,NE,37,0.0,0.0,82,0.00,,,0.00,VWS V13.01,2013-09-17 06:30:00,
2013-09-17 01:35:00,69.1,63.0,30.22,NE,37,0.0,0.0,81,0.00,,,0.00,VWS V13.01,2013-09-17 06:35:00,
2013-09-17 01:40:00,69.3,62.9,30.22,NE,37,0.0,0.0,80,0.00,,,0.00,VWS V13.01,2013-09-17 06:40:00,
2013-09-17 01:45:00,69.3,62.9,30.22,NE,37,0.0,0.0,80,0.00,,,0.00,VWS V13.01,2013-09-17 06:45:00,
2013-09-17 01:50:00,69.1,62.7,30.22,NE,37,0.0,0.0,80,0.00,,,0.00,VWS V13.01,2013-09-17 06:50:00,
2013-09-17 01:55:00,68.9,62.5,30.22,NE,37,0.0,0.0,80,0.00,,,0.00,VWS V13.01,2013-09-17 06:55:00,
2013-09-17 02:00:00,68.9,62.5,30.22,NE,37,0.0,0.0,80,0.00,,,0.00,VWS V13.01,2013-09-17 07:00:00,
2013-09-17 02:05:00,68.8,62.3,30.22,NE,37,0.0,0.0,80,0.00,,,0.00,VWS V13.01,2013-09-17 07:05:00,
2013-09-17 02:10:00,68.6,62.5,30.22,NE,37,0.0,0.0,81,0.00,,,0.00,VWS V13.01,2013-09-17 07:10:00,
2013-09-17 02:15:00,68.4,62.3,30.22,NE,37,0.0,0.0,81,0.00,,,0.00,VWS V13.01,2013-09-17 07:15:00,
2013-09-17 02:20:00,68.2,62.5,30.22,NE,37,0.0,0.0,82,0.00,,,0.00,VWS V13.01,2013-09-17 07:20:00,
2013-09-17 02:25:00,68.0,62.3,30.22,NE,37,0.0,0.0,82,0.00,,,0.00,VWS V13.01,2013-09-17 07:25:00,
2013-09-17 02:30:00,68.2,62.9,30.22,East,95,0.0,0.0,83,0.00,,,0.00,VWS V13.01,2013-09-17 07:30:00,
2013-09-17 02:35:00,68.4,63.4,30.22,East,95,0.0,0.0,84,0.00,,,0.00,VWS V13.01,2013-09-17 07:35:00,
2013-09-17 02:40:00,68.4,63.7,30.22,East,95,0.0,0.0,85,0.00,,,0.00,VWS V13.01,2013-09-17 07:40:00,
2013-09-17 02:45:00,68.6,63.9,30.22,East,95,0.0,0.0,85,0.00,,,0.00,VWS V13.01,2013-09-17 07:45:00,
2013-09-17 02:50:00,68.4,63.7,30.22,East,95,0.0,0.0,85,0.00,,,0.00,VWS V13.01,2013-09-17 07:50:00,
2013-09-17 02:55:00,68.4,64.1,30.22,East,95,0.0,0.0,86,0.00,,,0.00,VWS V13.01,2013-09-17 07:55:00,
2013-09-17 03:00:00,68.2,63.9,30.22,East,95,0.0,0.0,86,0.00,,,0.00,VWS V13.01,2013-09-17 08:00:00,
2013-09-17 03:05:00,68.0,63.7,30.22,East,95,0.0,0.0,86,0.00,,,0.00,VWS V13.01,2013-09-17 08:05:00,
2013-09-17 03:10:00,68.0,64.0,30.22,East,95,0.0,0.0,87,0.00,,,0.00,VWS V13.01,2013-09-17 08:10:00,
2013-09-17 03:15:00,68.0,64.0,30.22,East,95,0.0,0.0,87,0.00,,,0.00,VWS V13.01,2013-09-17 08:15:00,
2013-09-17 03:20:00,67.9,63.8,30.22,East,95,0.0,0.0,87,0.00,,,0.00,VWS V13.01,2013-09-17 08:20:00,
2013-09-17 03:25:00,67.9,63.8,30.22,East,95,0.0,0.0,87,0.00,,,0.00,VWS V13.01,2013-09-17 08:25:00,
2013-09-17 03:30:00,67.7,64.0,30.22,East,91,0.0,0.0,88,0.00,,,0.00,VWS V13.01,2013-09-17 08:30:00,
2013-09-17 03:35:00,67.7,64.7,30.22,North,352,2.2,2.2,90,0.00,,,0.00,VWS V13.01,2013-09-17 08:35:00,
2013-09-17 03:40:00,67.5,64.5,30.22,NNE,31,0.0,0.0,90,0.00,,,0.00,VWS V13.01,2013-09-17 08:40:00,
2013-09-17 03:45:00,67.3,64.3,30.22,NE,39,0.0,0.0,90,0.00,,,0.00,VWS V13.01,2013-09-17 08:45:00,
2013-09-17 03:50:00,67.3,64.3,30.22,East,90,0.0,0.0,90,0.00,,,0.00,VWS V13.01,2013-09-17 08:50:00,
2013-09-17 03:55:00,67.5,64.5,30.22,East,90,4.0,4.0,90,0.00,,,0.00,VWS V13.01,2013-09-17 08:55:00,
2013-09-17 04:00:00,67.5,64.5,30.22,North,1,2.7,2.7,90,0.00,,,0.00,VWS V13.01,2013-09-17 09:00:00,
2013-09-17 04:05:00,67.7,64.7,30.22,NE,53,3.6,3.6,90,0.00,,,0.00,VWS V13.01,2013-09-17 09:05:00,
2013-09-17 04:10:00,67.9,64.8,30.22,SE,139,4.9,4.9,90,0.00,,,0.00,VWS V13.01,2013-09-17 09:10:00,
2013-09-17 04:15:00,68.0,64.7,30.22,ENE,76,2.2,3.1,89,0.00,,,0.00,VWS V13.01,2013-09-17 09:15:00,
2013-09-17 04:20:00,68.0,64.0,30.22,ESE,104,2.7,3.6,87,0.00,,,0.00,VWS V13.01,2013-09-17 09:20:00,
2013-09-17 04:25:00,68.0,64.0,30.22,ENE,78,4.0,5.4,87,0.00,,,0.00,VWS V13.01,2013-09-17 09:25:00,
2013-09-17 04:30:00,68.0,63.7,30.22,ENE,67,2.7,3.6,86,0.00,,,0.00,VWS V13.01,2013-09-17 09:30:00,
2013-09-17 04:35:00,68.0,63.7,30.22,East,88,4.0,4.0,86,0.00,,,0.00,VWS V13.01,2013-09-17 09:35:00,
2013-09-17 04:40:00,67.9,63.5,30.22,ENE,76,2.2,3.6,86,0.00,,,0.00,VWS V13.01,2013-09-17 09:40:00,
2013-09-17 04:45:00,67.9,63.5,30.22,ENE,72,0.0,0.0,86,0.00,,,0.00,VWS V13.01,2013-09-17 09:45:00,
2013-09-17 04:50:00,67.7,63.3,30.22,ENE,63,0.0,0.0,86,0.00,,,0.00,VWS V13.01,2013-09-17 09:50:00,
2013-09-17 04:55:00,67.7,63.3,30.22,ENE,74,0.0,0.0,86,0.00,,,0.00,VWS V13.01,2013-09-17 09:55:00,
2013-09-17 05:00:00,67.5,63.5,30.22,NE,52,0.0,2.7,87,0.00,,,0.00,VWS V13.01,2013-09-17 10:00:00,
2013-09-17 05:05:00,67.3,63.7,30.22,NE,44,0.0,0.0,88,0.00,,,0.00,VWS V13.01,2013-09-17 10:05:00,
2013-09-17 05:10:00,67.3,63.7,30.22,NE,44,0.0,0.0,88,0.00,,,0.00,VWS V13.01,2013-09-17 10:10:00,
2013-09-17 05:15:00,67.1,63.8,30.19,NE,40,0.0,0.0,89,0.00,,,0.00,VWS V13.01,2013-09-17 10:15:00,
2013-09-17 05:20:00,67.0,63.6,30.19,NE,40,0.0,0.0,89,0.00,,,0.00,VWS V13.01,2013-09-17 10:20:00,
2013-09-17 05:25:00,66.8,63.8,30.19,NE,38,0.0,0.0,90,0.00,,,0.00,VWS V13.01,2013-09-17 10:25:00,
2013-09-17 05:30:00,66.6,63.6,30.22,NE,38,0.0,0.0,90,0.00,,,0.00,VWS V13.01,2013-09-17 10:30:00,
2013-09-17 05:35:00,66.4,63.4,30.22,NE,38,0.0,0.0,90,0.00,,,0.00,VWS V13.01,2013-09-17 10:35:00,
2013-09-17 05:40:00,66.1,63.0,30.22,NE,38,0.0,0.0,90,0.00,,,0.00,VWS V13.01,2013-09-17 10:40:00,
2013-09-17 05:45:00,65.9,62.9,30.19,NE,38,0.0,0.0,90,0.00,,,0.00,VWS V13.01,2013-09-17 10:45:00,
2013-09-17 05:50:00,65.7,63.0,30.19,NE,38,0.0,0.0,91,0.00,,,0.00,VWS V13.01,2013-09-17 10:50:00,
2013-09-17 05:55:00,65.7,63.9,30.19,NE,38,0.0,0.0,94,0.00,,,0.00,VWS V13.01,2013-09-17 10:55:00,
2013-09-17 06:00:00,65.5,63.8,30.22,NE,38,0.0,0.0,94,0.00,,,0.00,VWS V13.01,2013-09-17 11:00:00,
2013-09-17 06:05:00,65.5,63.8,30.22,NE,38,0.0,0.0,94,0.00,,,0.00,VWS V13.01,2013-09-17 11:05:00,
2013-09-17 06:10:00,65.3,63.9,30.22,NE,38,0.0,0.0,95,0.00,,,0.00,VWS V13.01,2013-09-17 11:10:00,
2013-09-17 06:15:00,65.3,63.9,30.22,NE,38,0.0,0.0,95,0.00,,,0.00,VWS V13.01,2013-09-17 11:15:00,
2013-09-17 06:20:00,65.3,64.5,30.22,NE,38,0.0,0.0,97,0.00,,,0.00,VWS V13.01,2013-09-17 11:20:00,
2013-09-17 06:25:00,65.2,64.6,30.22,NE,38,0.0,0.0,98,0.00,,,0.00,VWS V13.01,2013-09-17 11:25:00,
2013-09-17 06:30:00,65.0,64.7,30.22,NE,38,0.0,0.0,99,0.00,,,0.00,VWS V13.01,2013-09-17 11:30:00,
2013-09-17 06:35:00,64.8,64.8,30.22,NE,38,0.0,0.0,100,0.00,,,0.00,VWS V13.01,2013-09-17 11:35:00,
2013-09-17 06:40:00,64.6,64.3,30.22,NE,38,0.0,0.0,99,0.00,,,0.00,VWS V13.01,2013-09-17 11:40:00,
2013-09-17 06:45:00,64.4,64.2,30.22,NE,38,0.0,0.0,99,0.00,,,0.00,VWS V13.01,2013-09-17 11:45:00,
2013-09-17 06:50:00,64.1,63.8,30.22,NE,38,0.0,0.0,99,0.00,,,0.00,VWS V13.01,2013-09-17 11:50:00,
2013-09-17 06:55:00,63.9,63.6,30.22,NE,38,0.0,0.0,99,0.00,,,0.00,VWS V13.01,2013-09-17 11:55:00,
2013-09-17 07:00:00,63.9,63.6,30.22,NE,38,0.0,0.0,99,0.00,,,0.00,VWS V13.01,2013-09-17 12:00:00,
2013-09-17 07:05:00,63.7,63.7,30.22,NE,38,0.0,0.0,100,0.00,,,0.00,VWS V13.01,2013-09-17 12:05:00,
2013-09-17 07:10:00,63.7,63.7,30.22,NE,38,0.0,0.0,100,0.00,,,0.00,VWS V13.01,2013-09-17 12:10:00,
2013-09-17 07:15:00,63.7,63.7,30.22,NE,38,0.0,0.0,100,0.00,,,0.00,VWS V13.01,2013-09-17 12:15:00,
2013-09-17 07:20:00,63.9,63.9,30.22,NE,38,0.0,0.0,100,0.00,,,0.00,VWS V13.01,2013-09-17 12:20:00,
2013-09-17 07:25:00,63.9,63.9,30.22,NE,38,0.0,0.0,100,0.00,,,0.00,VWS V13.01,2013-09-17 12:25:00,
2013-09-17 07:30:00,63.9,63.9,30.22,NE,38,0.0,0.0,100,0.00,,,0.00,VWS V13.01,2013-09-17 12:30:00,
2013-09-17 07:35:00,64.1,64.1,30.22,NE,38,0.0,0.0,100,0.00,,,0.00,VWS V13.01,2013-09-17 12:35:00,
2013-09-17 07:40:00,64.3,64.3,30.22,NE,38,0.0,0.0,100,0.00,,,0.00,VWS V13.01,2013-09-17 12:40:00,
2013-09-17 07:45:00,64.3,64.3,30.22,NE,38,0.0,0.0,100,0.00,,,0.00,VWS V13.01,2013-09-17 12:45:00,
2013-09-17 07:50:00,64.4,64.4,30.22,NE,38,0.0,0.0,100,0.00,,,0.00,VWS V13.01,2013-09-17 12:50:00,
2013-09-17 07:55:00,64.8,64.8,30.22,NE,38,0.0,0.0,100,0.00,,,0.00,VWS V13.01,2013-09-17 12:55:00,
2013-09-17 08:00:00,65.2,65.2,30.22,NNE,14,0.0,0.0,100,0.00,,,0.00,VWS V13.01,2013-09-17 13:00:00,
2013-09-17 08:05:00,65.3,65.3,30.22,NNW,344,0.0,0.0,100,0.00,,,0.00,VWS V13.01,2013-09-17 13:05:00,
2013-09-17 08:10:00,65.7,65.7,30.22,North,3,2.2,2.7,100,0.00,,,0.00,VWS V13.01,2013-09-17 13:10:00,
2013-09-17 08:15:00,66.1,66.1,30.22,North,3,0.0,0.0,100,0.00,,,0.00,VWS V13.01,2013-09-17 13:15:00,
2013-09-17 08:20:00,66.8,66.8,30.22,NNE,16,0.0,0.0,100,0.00,,,0.00,VWS V13.01,2013-09-17 13:20:00,
2013-09-17 08:25:00,67.5,67.5,30.22,NNE,22,0.0,0.0,100,0.00,,,0.00,VWS V13.01,2013-09-17 13:25:00,
2013-09-17 08:30:00,67.9,66.7,30.22,NNW,340,0.0,0.0,96,0.00,,,0.00,VWS V13.01,2013-09-17 13:30:00,
2013-09-17 08:35:00,68.6,64.9,30.22,North,349,2.7,3.1,88,0.00,,,0.00,VWS V13.01,2013-09-17 13:35:00,
2013-09-17 08:40:00,68.9,64.2,30.22,East,83,2.2,3.1,85,0.00,,,0.00,VWS V13.01,2013-09-17 13:40:00,
2013-09-17 08:45:00,69.5,64.4,30.22,NNE,12,0.0,2.7,84,0.00,,,0.00,VWS V13.01,2013-09-17 13:45:00,
2013-09-17 08:50:00,70.0,63.2,30.22,NNE,22,2.7,4.0,79,0.00,,,0.00,VWS V13.01,2013-09-17 13:50:00,
2013-09-17 08:55:00,70.6,63.7,30.22,NE,35,2.2,3.1,79,0.00,,,0.00,VWS V13.01,2013-09-17 13:55:00,
2013-09-17 09:00:00,70.9,63.0,30.22,NE,36,0.0,3.1,76,0.00,,,0.00,VWS V13.01,2013-09-17 14:00:00,
2013-09-17 09:05:00,71.3,63.7,30.22,East,92,3.1,5.4,77,0.00,,,0.00,VWS V13.01,2013-09-17 14:05:00,
2013-09-17 09:10:00,71.6,63.7,30.22,NNE,24,5.4,5.4,76,0.00,,,0.00,VWS V13.01,2013-09-17 14:10:00,
2013-09-17 09:15:00,71.8,63.5,30.22,NE,37,4.0,4.0,75,0.00,,,0.00,VWS V13.01,2013-09-17 14:15:00,
2013-09-17 09:20:00,72.2,63.4,30.22,NE,39,4.0,5.8,74,0.00,,,0.00,VWS V13.01,2013-09-17 14:20:00,
2013-09-17 09:25:00,72.4,63.2,30.22,North,360,4.0,4.0,73,0.00,,,0.00,VWS V13.01,2013-09-17 14:25:00,
2013-09-17 09:30:00,72.7,63.6,30.25,East,99,3.1,4.5,73,0.00,,,0.00,VWS V13.01,2013-09-17 14:30:00,
2013-09-17 09:35:00,73.4,63.5,30.25,NE,47,4.0,4.0,71,0.00,,,0.00,VWS V13.01,2013-09-17 14:35:00,
2013-09-17 09:40:00,74.0,63.6,30.25,East,85,5.4,5.4,70,0.00,,,0.00,VWS V13.01,2013-09-17 14:40:00,
2013-09-17 09:45:00,74.2,63.8,30.25,East,88,5.4,5.4,70,0.00,,,0.00,VWS V13.01,2013-09-17 14:45:00,
2013-09-17 09:50:00,74.3,63.9,30.25,ESE,116,4.0,4.9,70,0.00,,,0.00,VWS V13.01,2013-09-17 14:50:00,
2013-09-17 09:55:00,74.5,64.1,30.25,ENE,77,3.1,5.4,70,0.00,,,0.00,VWS V13.01,2013-09-17 14:55:00,
2013-09-17 10:00:00,74.9,64.0,30.25,North,3,3.6,4.9,69,0.00,,,0.00,VWS V13.01,2013-09-17 15:00:00,
2013-09-17 10:05:00,75.2,64.4,30.25,SE,125,3.6,3.6,69,0.00,,,0.00,VWS V13.01,2013-09-17 15:05:00,
2013-09-17 10:10:00,75.4,64.1,30.25,East,95,5.4,7.6,68,0.00,,,0.00,VWS V13.01,2013-09-17 15:10:00,
2013-09-17 10:15:00,75.6,64.7,30.25,East,90,5.4,5.4,69,0.00,,,0.00,VWS V13.01,2013-09-17 15:15:00,
2013-09-17 10:20:00,76.1,64.8,30.25,East,94,4.0,4.0,68,0.00,,,0.00,VWS V13.01,2013-09-17 15:20:00,
2013-09-17 10:25:00,76.7,64.9,30.25,ENE,76,4.0,4.9,67,0.00,,,0.00,VWS V13.01,2013-09-17 15:25:00,
2013-09-17 10:30:00,77.4,65.2,30.22,ENE,68,4.9,4.9,66,0.00,,,0.00,VWS V13.01,2013-09-17 15:30:00,
2013-09-17 10:35:00,77.6,64.9,30.22,ENE,69,5.8,5.8,65,0.00,,,0.00,VWS V13.01,2013-09-17 15:35:00,
2013-09-17 10:40:00,77.6,64.4,30.22,East,82,5.4,5.4,64,0.00,,,0.00,VWS V13.01,2013-09-17 15:40:00,
2013-09-17 10:45:00,77.4,64.7,30.22,SE,128,3.1,5.4,65,0.00,,,0.00,VWS V13.01,2013-09-17 15:45:00,
2013-09-17 10:50:00,77.6,65.3,30.22,ESE,117,3.1,4.0,66,0.00,,,0.00,VWS V13.01,2013-09-17 15:50:00,
2013-09-17 10:55:00,78.3,65.1,30.22,NNW,336,0.0,0.0,64,0.00,,,0.00,VWS V13.01,2013-09-17 15:55:00,
2013-09-17 11:00:00,79.2,65.1,30.22,East,101,4.0,4.0,62,0.00,,,0.00,VWS V13.01,2013-09-17 16:00:00,
2013-09-17 11:05:00,79.4,64.8,30.22,NNE,15,4.0,4.0,61,0.00,,,0.00,VWS V13.01,2013-09-17 16:05:00,
2013-09-17 11:10:00,79.4,64.8,30.22,NNE,16,4.0,4.0,61,0.00,,,0.00,VWS V13.01,2013-09-17 16:10:00,
2013-09-17 11:15:00,79.9,64.8,30.22,ENE,60,5.4,5.4,60,0.00,,,0.00,VWS V13.01,2013-09-17 16:15:00,
2013-09-17 11:20:00,80.5,64.8,30.22,SE,125,6.3,6.3,59,0.00,,,0.00,VWS V13.01,2013-09-17 16:20:00,
2013-09-17 11:25:00,80.5,64.8,30.22,NNE,24,3.1,4.0,59,0.00,,,0.00,VWS V13.01,2013-09-17 16:25:00,
2013-09-17 11:30:00,80.5,64.8,30.22,ESE,107,8.1,8.1,59,0.00,,,0.00,VWS V13.01,2013-09-17 16:30:00,
2013-09-17 11:35:00,80.6,65.0,30.22,East,90,3.6,5.4,59,0.00,,,0.00,VWS V13.01,2013-09-17 16:35:00,
2013-09-17 11:40:00,80.8,65.2,30.22,East,88,3.6,3.6,59,0.00,,,0.00,VWS V13.01,2013-09-17 16:40:00,
2013-09-17 11:45:00,80.8,64.7,30.22,NNE,28,5.8,5.8,58,0.00,,,0.00,VWS V13.01,2013-09-17 16:45:00,
2013-09-17 11:50:00,81.4,65.7,30.22,NE,53,4.0,4.0,59,0.00,,,0.00,VWS V13.01,2013-09-17 16:50:00,
2013-09-17 11:55:00,82.1,65.8,30.22,ENE,73,2.7,2.7,58,0.00,,,0.00,VWS V13.01,2013-09-17 16:55:00,
2013-09-17 12:00:00,83.0,66.7,30.22,East,83,3.1,3.1,58,0.00,,,0.00,VWS V13.01,2013-09-17 17:00:00,
2013-09-17 12:05:00,83.3,66.5,30.22,East,91,3.1,3.1,57,0.00,,,0.00,VWS V13.01,2013-09-17 17:05:00,
2013-09-17 12:10:00,83.5,66.7,30.22,SSE,150,3.1,3.1,57,0.00,,,0.00,VWS V13.01,2013-09-17 17:10:00,
2013-09-17 12:15:00,83.2,66.4,30.19,East,97,2.7,2.7,57,0.00,,,0.00,VWS V13.01,2013-09-17 17:15:00,
2013-09-17 12:20:00,83.3,66.5,30.19,East,85,3.1,3.1,57,0.00,,,0.00,VWS V13.01,2013-09-17 17:20:00,
2013-09-17 12:25:00,83.5,67.2,30.19,SE,133,5.8,6.3,58,0.00,,,0.00,VWS V13.01,2013-09-17 17:25:00,
2013-09-17 12:30:00,83.9,66.0,30.19,North,352,3.1,3.1,55,0.00,,,0.00,VWS V13.01,2013-09-17 17:30:00,
2013-09-17 12:35:00,83.9,66.5,30.19,ESE,113,3.1,3.1,56,0.00,,,0.00,VWS V13.01,2013-09-17 17:35:00,
2013-09-17 12:40:00,84.1,66.7,30.19,West,266,2.2,2.7,56,0.00,,,0.00,VWS V13.01,2013-09-17 17:40:00,
2013-09-17 12:45:00,84.4,67.0,30.19,ESE,114,3.6,3.6,56,0.00,,,0.00,VWS V13.01,2013-09-17 17:45:00,
2013-09-17 12:50:00,84.6,66.7,30.19,ESE,105,3.6,7.6,55,0.00,,,0.00,VWS V13.01,2013-09-17 17:50:00,
2013-09-17 12:55:00,84.8,67.4,30.19,ENE,76,5.4,5.4,56,0.00,,,0.00,VWS V13.01,2013-09-17 17:55:00,
2013-09-17 13:00:00,84.8,67.4,30.19,South,173,5.8,5.8,56,0.00,,,0.00,VWS V13.01,2013-09-17 18:00:00,
2013-09-17 13:05:00,84.8,65.8,30.19,ESE,119,3.6,4.9,53,0.00,,,0.00,VWS V13.01,2013-09-17 18:05:00,
2013-09-17 13:10:00,85.3,66.3,30.19,South,171,8.1,8.1,53,0.00,,,0.00,VWS V13.01,2013-09-17 18:10:00,
2013-09-17 13:15:00,85.5,65.9,30.19,ESE,114,4.5,4.5,52,0.00,,,0.00,VWS V13.01,2013-09-17 18:15:00,
2013-09-17 13:20:00,85.9,66.2,30.19,South,169,4.9,6.3,52,0.00,,,0.00,VWS V13.01,2013-09-17 18:20:00,
2013-09-17 13:25:00,86.6,66.3,30.19,SE,135,3.1,3.1,51,0.00,,,0.00,VWS V13.01,2013-09-17 18:25:00,
2013-09-17 13:30:00,87.7,66.2,30.16,South,178,5.8,7.6,49,0.00,,,0.00,VWS V13.01,2013-09-17 18:30:00,
2013-09-17 13:35:00,87.7,66.2,30.16,SE,124,5.4,8.3,49,0.00,,,0.00,VWS V13.01,2013-09-17 18:35:00,
2013-09-17 13:40:00,87.7,66.2,30.16,SSE,157,4.0,6.3,49,0.00,,,0.00,VWS V13.01,2013-09-17 18:40:00,
2013-09-17 13:45:00,87.8,65.7,30.16,ENE,74,5.8,6.7,48,0.00,,,0.00,VWS V13.01,2013-09-17 18:45:00,
2013-09-17 13:50:00,87.1,65.1,30.16,South,182,3.6,4.9,48,0.00,,,0.00,VWS V13.01,2013-09-17 18:50:00,
2013-09-17 13:55:00,86.6,65.2,30.16,ESE,103,4.0,5.4,49,0.00,,,0.00,VWS V13.01,2013-09-17 18:55:00,
2013-09-17 14:00:00,86.6,65.2,30.16,ENE,67,5.4,5.8,49,0.00,,,0.00,VWS V13.01,2013-09-17 19:00:00,
2013-09-17 14:05:00,86.6,65.8,30.16,SE,134,2.7,2.7,50,0.00,,,0.00,VWS V13.01,2013-09-17 19:05:00,
2013-09-17 14:10:00,86.8,65.3,30.16,South,191,4.5,4.9,49,0.00,,,0.00,VWS V13.01,2013-09-17 19:10:00,
2013-09-17 14:15:00,86.6,65.2,30.16,ESE,103,2.2,5.8,49,0.00,,,0.00,VWS V13.01,2013-09-17 19:15:00,
2013-09-17 14:20:00,86.6,65.8,30.16,SSW,205,2.7,3.1,50,0.00,,,0.00,VWS V13.01,2013-09-17 19:20:00,
2013-09-17 14:25:00,86.9,65.5,30.16,South,169,3.1,3.1,49,0.00,,,0.00,VWS V13.01,2013-09-17 19:25:00,
2013-09-17 14:30:00,87.1,65.7,30.13,East,81,3.6,3.6,49,0.00,,,0.00,VWS V13.01,2013-09-17 19:30:00,
2013-09-17 14:35:00,87.5,66.0,30.13,East,83,4.0,4.0,49,0.00,,,0.00,VWS V13.01,2013-09-17 19:35:00,
2013-09-17 14:40:00,87.8,66.3,30.13,East,93,4.0,4.0,49,0.00,,,0.00,VWS V13.01,2013-09-17 19:40:00,
2013-09-17 14:45:00,88.2,66.7,30.13,ENE,63,4.9,4.9,49,0.00,,,0.00,VWS V13.01,2013-09-17 19:45:00,
2013-09-17 14:50:00,88.7,66.5,30.13,SSE,147,2.7,2.7,48,0.00,,,0.00,VWS V13.01,2013-09-17 19:50:00,
2013-09-17 14:55:00,89.6,66.8,30.13,East,85,3.1,4.0,47,0.00,,,0.00,VWS V13.01,2013-09-17 19:55:00,
2013-09-17 15:00:00,89.3,66.4,30.13,SSE,152,4.0,4.0,47,0.00,,,0.00,VWS V13.01,2013-09-17 20:00:00,
2013-09-17 15:04:00,88.9,66.1,30.13,East,85,5.8,5.8,47,0.00,,,0.00,VWS V13.01,2013-09-17 20:04:00,
2013-09-17 15:09:00,88.7,65.9,30.13,South,171,2.2,3.6,47,0.00,,,0.00,VWS V13.01,2013-09-17 20:09:00,
2013-09-17 15:14:00,88.9,66.7,30.13,ENE,78,4.0,4.0,48,0.00,,,0.00,VWS V13.01,2013-09-17 20:14:00,
2013-09-17 15:19:00,88.9,66.7,30.13,NE,38,3.1,3.1,48,0.00,,,0.00,VWS V13.01,2013-09-17 20:19:00,
2013-09-17 15:24:00,89.3,66.4,30.13,NNW,339,2.7,3.1,47,0.00,,,0.00,VWS V13.01,2013-09-17 20:24:00,
2013-09-17 15:29:00,90.0,67.1,30.13,NE,55,3.6,4.9,47,0.00,,,0.00,VWS V13.01,2013-09-17 20:29:00,
2013-09-17 15:34:00,89.8,66.9,30.13,NNW,348,2.7,3.1,47,0.00,,,0.00,VWS V13.01,2013-09-17 20:34:00,
2013-09-17 15:40:00,89.8,66.9,30.13,North,6,0.0,2.7,47,0.00,,,0.00,VWS V13.01,2013-09-17 20:40:00,
2013-09-17 15:45:00,89.6,66.1,30.10,NNE,27,2.2,3.1,46,0.00,,,0.00,VWS V13.01,2013-09-17 20:45:00,
2013-09-17 15:50:00,89.5,66.6,30.10,NE,46,2.7,3.6,47,0.00,,,0.00,VWS V13.01,2013-09-17 20:50:00,
2013-09-17 15:55:00,89.5,66.6,30.10,North,353,2.2,4.0,47,0.00,,,0.00,VWS V13.01,2013-09-17 20:55:00,
2013-09-17 16:00:00,89.3,66.4,30.10,ENE,63,3.6,4.0,47,0.00,,,0.00,VWS V13.01,2013-09-17 21:00:00,
2013-09-17 16:05:00,88.9,66.1,30.10,NNE,12,2.2,3.1,47,0.00,,,0.00,VWS V13.01,2013-09-17 21:05:00,
2013-09-17 16:10:00,89.1,66.3,30.10,NNE,13,0.0,0.0,47,0.00,,,0.00,VWS V13.01,2013-09-17 21:10:00,
2013-09-17 16:15:00,89.3,66.4,30.10,ENE,63,3.1,4.0,47,0.00,,,0.00,VWS V13.01,2013-09-17 21:15:00,
2013-09-17 16:20:00,89.3,66.4,30.10,ENE,59,2.7,3.6,47,0.00,,,0.00,VWS V13.01,2013-09-17 21:20:00,
2013-09-17 16:25:00,89.6,66.8,30.10,NE,41,2.2,4.0,47,0.00,,,0.00,VWS V13.01,2013-09-17 21:25:00,
2013-09-17 16:30:00,90.5,67.6,30.10,NE,47,5.8,5.8,47,0.00,,,0.00,VWS V13.01,2013-09-17 21:30:00,
2013-09-17 16:35:00,90.7,67.7,30.10,ENE,60,3.6,4.9,47,0.00,,,0.00,VWS V13.01,2013-09-17 21:35:00,
2013-09-17 16:40:00,90.2,67.2,30.10,NNE,24,3.6,4.9,47,0.00,,,0.00,VWS V13.01,2013-09-17 21:40:00,
2013-09-17 16:45:00,90.0,66.5,30.10,East,80,3.1,3.1,46,0.00,,,0.00,VWS V13.01,2013-09-17 21:45:00,
2013-09-17 16:50:00,90.0,66.5,30.10,NE,55,2.2,3.6,46,0.00,,,0.00,VWS V13.01,2013-09-17 21:50:00,
2013-09-17 16:55:00,90.0,66.5,30.10,East,86,3.6,7.6,46,0.00,,,0.00,VWS V13.01,2013-09-17 21:55:00,
2013-09-17 17:00:00,89.6,66.1,30.10,NNE,13,2.7,2.7,46,0.00,,,0.00,VWS V13.01,2013-09-17 22:00:00,
2013-09-17 17:05:00,89.5,66.6,30.10,ENE,64,3.1,3.1,47,0.00,,,0.00,VWS V13.01,2013-09-17 22:05:00,
2013-09-17 17:10:00,89.5,66.0,30.10,ESE,105,3.1,4.0,46,0.00,,,0.00,VWS V13.01,2013-09-17 22:10:00,
2013-09-17 17:15:00,89.5,66.0,30.10,ENE,70,2.7,2.7,46,0.00,,,0.00,VWS V13.01,2013-09-17 22:15:00,
2013-09-17 17:20:00,89.6,66.1,30.10,East,94,2.7,4.0,46,0.00,,,0.00,VWS V13.01,2013-09-17 22:20:00,
2013-09-17 17:25:00,89.6,66.1,30.10,NNE,33,4.0,4.0,46,0.00,,,0.00,VWS V13.01,2013-09-17 22:25:00,
2013-09-17 17:30:00,89.8,66.3,30.10,ENE,65,4.0,4.9,46,0.00,,,0.00,VWS V13.01,2013-09-17 22:30:00,
2013-09-17 17:35:00,89.6,66.1,30.10,ESE,104,2.7,3.6,46,0.00,,,0.00,VWS V13.01,2013-09-17 22:35:00,
2013-09-17 17:40:00,89.5,66.0,30.10,East,89,2.2,2.2,46,0.00,,,0.00,VWS V13.01,2013-09-17 22:40:00,
2013-09-17 17:45:00,89.3,65.8,30.07,East,90,3.6,3.6,46,0.00,,,0.00,VWS V13.01,2013-09-17 22:45:00,
2013-09-17 17:50:00,89.1,65.6,30.07,ENE,71,3.1,3.1,46,0.00,,,0.00,VWS V13.01,2013-09-17 22:50:00,
2013-09-17 17:55:00,89.1,66.3,30.07,NNE,30,0.0,0.0,47,0.00,,,0.00,VWS V13.01,2013-09-17 22:55:00,
2013-09-17 18:01:00,89.1,66.3,30.07,NE,34,0.0,0.0,47,0.00,,,0.00,VWS V13.01,2013-09-17 23:01:00,
2013-09-17 18:06:00,89.3,66.4,30.07,East,88,3.1,3.1,47,0.00,,,0.00,VWS V13.01,2013-09-17 23:06:00,
2013-09-17 18:11:00,88.9,66.1,30.07,East,94,2.7,4.0,47,0.00,,,0.00,VWS V13.01,2013-09-17 23:11:00,
2013-09-17 18:16:00,88.7,65.9,30.07,NE,36,3.1,3.1,47,0.00,,,0.00,VWS V13.01,2013-09-17 23:16:00,
2013-09-17 18:21:00,88.7,65.9,30.07,NE,36,2.2,2.2,47,0.00,,,0.00,VWS V13.01,2013-09-17 23:21:00,
2013-09-17 18:26:00,88.7,65.9,30.07,NE,35,3.1,3.1,47,0.00,,,0.00,VWS V13.01,2013-09-17 23:26:00,
2013-09-17 18:31:00,88.7,65.9,30.07,NE,35,0.0,0.0,47,0.00,,,0.00,VWS V13.01,2013-09-17 23:31:00,
2013-09-17 18:36:00,88.7,65.9,30.07,NE,36,0.0,0.0,47,0.00,,,0.00,VWS V13.01,2013-09-17 23:36:00,
2013-09-17 18:41:00,88.7,65.9,30.07,NE,48,3.1,3.6,47,0.00,,,0.00,VWS V13.01,2013-09-17 23:41:00,
2013-09-17 18:46:00,87.3,65.2,30.07,NE,37,3.1,3.6,48,0.00,,,0.00,VWS V13.01,2013-09-17 23:46:00,
2013-09-17 18:51:00,87.3,65.2,30.07,NE,36,0.0,2.2,48,0.00,,,0.00,VWS V13.01,2013-09-17 23:51:00,
2013-09-17 18:56:00,86.2,64.8,30.07,NE,39,0.0,0.0,49,0.00,,,0.00,VWS V13.01,2013-09-17 23:56:00,
2013-09-17 19:01:00,85.9,64.5,30.07,ENE,73,0.0,0.0,49,0.00,,,0.00,VWS V13.01,2013-09-18 00:01:00,
2013-09-17 19:06:00,85.0,64.3,30.07,ESE,102,0.0,0.0,50,0.00,,,0.00,VWS V13.01,2013-09-18 00:06:00,
2013-09-17 19:11:00,84.4,64.3,30.07,ESE,102,0.0,0.0,51,0.00,,,0.00,VWS V13.01,2013-09-18 00:11:00,
2013-09-17 19:16:00,83.9,63.8,30.07,ESE,117,0.0,0.0,51,0.00,,,0.00,VWS V13.01,2013-09-18 00:16:00,
2013-09-17 19:21:00,83.5,64.1,30.07,NE,49,0.0,0.0,52,0.00,,,0.00,VWS V13.01,2013-09-18 00:21:00,
2013-09-17 19:26:00,83.3,64.4,30.07,NNE,32,0.0,0.0,53,0.00,,,0.00,VWS V13.01,2013-09-18 00:26:00,
2013-09-17 19:31:00,83.0,64.1,30.07,ENE,65,0.0,0.0,53,0.00,,,0.00,VWS V13.01,2013-09-18 00:31:00,
2013-09-17 19:36:00,82.6,64.3,30.07,East,80,0.0,0.0,54,0.00,,,0.00,VWS V13.01,2013-09-18 00:36:00,
2013-09-17 19:41:00,82.1,63.8,30.07,East,80,0.0,0.0,54,0.00,,,0.00,VWS V13.01,2013-09-18 00:41:00,
2013-09-17 19:46:00,81.9,64.7,30.07,NNE,23,0.0,0.0,56,0.00,,,0.00,VWS V13.01,2013-09-18 00:46:00,
2013-09-17 19:51:00,81.5,64.3,30.07,NNE,23,0.0,0.0,56,0.00,,,0.00,VWS V13.01,2013-09-18 00:51:00,
2013-09-17 19:56:00,81.2,64.5,30.07,NNE,23,0.0,0.0,57,0.00,,,0.00,VWS V13.01,2013-09-18 00:56:00,
2013-09-17 20:01:00,80.8,64.2,30.10,NNE,23,0.0,0.0,57,0.00,,,0.00,VWS V13.01,2013-09-18 01:01:00,
2013-09-17 20:06:00,80.6,64.5,30.10,NNE,23,0.0,0.0,58,0.00,,,0.00,VWS V13.01,2013-09-18 01:06:00,
2013-09-17 20:11:00,80.3,64.2,30.10,NNE,23,0.0,0.0,58,0.00,,,0.00,VWS V13.01,2013-09-18 01:11:00,
2013-09-17 20:16:00,80.1,64.0,30.07,NNE,23,0.0,0.0,58,0.00,,,0.00,VWS V13.01,2013-09-18 01:16:00,
2013-09-17 20:21:00,79.9,63.8,30.07,NNE,23,0.0,0.0,58,0.00,,,0.00,VWS V13.01,2013-09-18 01:21:00,
2013-09-17 20:26:00,79.6,63.5,30.07,NNE,23,0.0,0.0,58,0.00,,,0.00,VWS V13.01,2013-09-18 01:26:00,
2013-09-17 20:31:00,79.4,63.3,30.10,NNE,23,0.0,0.0,58,0.00,,,0.00,VWS V13.01,2013-09-18 01:31:00,
2013-09-17 20:36:00,79.2,63.7,30.10,NNE,23,0.0,0.0,59,0.00,,,0.00,VWS V13.01,2013-09-18 01:36:00,
2013-09-17 20:41:00,79.2,63.7,30.10,NNE,23,0.0,0.0,59,0.00,,,0.00,VWS V13.01,2013-09-18 01:41:00,
2013-09-17 20:46:00,78.8,63.8,30.10,NNE,23,0.0,0.0,60,0.00,,,0.00,VWS V13.01,2013-09-18 01:46:00,
2013-09-17 20:51:00,78.3,63.3,30.10,NNE,23,0.0,0.0,60,0.00,,,0.00,VWS V13.01,2013-09-18 01:51:00,
2013-09-17 20:56:00,77.9,63.4,30.10,NNE,23,0.0,0.0,61,0.00,,,0.00,VWS V13.01,2013-09-18 01:56:00,
2013-09-17 21:01:00,77.4,62.9,30.10,NNE,23,0.0,0.0,61,0.00,,,0.00,VWS V13.01,2013-09-18 02:01:00,
2013-09-17 21:06:00,76.9,62.9,30.10,NNE,23,0.0,0.0,62,0.00,,,0.00,VWS V13.01,2013-09-18 02:06:00,
2013-09-17 21:11:00,76.9,62.9,30.10,NNE,23,0.0,0.0,62,0.00,,,0.00,VWS V13.01,2013-09-18 02:11:00,
2013-09-17 21:16:00,76.7,62.7,30.10,NNE,23,0.0,0.0,62,0.00,,,0.00,VWS V13.01,2013-09-18 02:16:00,
2013-09-17 21:21:00,76.5,62.5,30.10,NNE,23,0.0,0.0,62,0.00,,,0.00,VWS V13.01,2013-09-18 02:21:00,
2013-09-17 21:26:00,76.1,62.6,30.10,NNE,23,0.0,0.0,63,0.00,,,0.00,VWS V13.01,2013-09-18 02:26:00,
2013-09-17 21:31:00,76.0,62.9,30.10,NNE,23,0.0,0.0,64,0.00,,,0.00,VWS V13.01,2013-09-18 02:31:00,
2013-09-17 21:36:00,75.8,63.6,30.10,NNE,23,0.0,0.0,66,0.00,,,0.00,VWS V13.01,2013-09-18 02:36:00,
2013-09-17 21:41:00,75.4,64.1,30.10,NNE,23,0.0,0.0,68,0.00,,,0.00,VWS V13.01,2013-09-18 02:41:00,
2013-09-17 21:46:00,75.1,63.8,30.13,NNE,23,0.0,0.0,68,0.00,,,0.00,VWS V13.01,2013-09-18 02:46:00,
2013-09-17 21:51:00,74.9,64.0,30.13,NNE,23,0.0,0.0,69,0.00,,,0.00,VWS V13.01,2013-09-18 02:51:00,
2013-09-17 21:56:00,74.3,63.9,30.13,NNE,23,0.0,0.0,70,0.00,,,0.00,VWS V13.01,2013-09-18 02:56:00,
2013-09-17 22:01:00,74.0,64.0,30.13,NNE,23,0.0,0.0,71,0.00,,,0.00,VWS V13.01,2013-09-18 03:01:00,
2013-09-17 22:06:00,73.4,63.5,30.13,NNE,23,0.0,0.0,71,0.00,,,0.00,VWS V13.01,2013-09-18 03:06:00,
2013-09-17 22:11:00,73.1,63.1,30.13,NNE,23,0.0,0.0,71,0.00,,,0.00,VWS V13.01,2013-09-18 03:11:00,
2013-09-17 22:17:00,72.7,63.2,30.13,NNE,23,0.0,0.0,72,0.00,,,0.00,VWS V13.01,2013-09-18 03:17:00,
2013-09-17 22:22:00,72.5,63.4,30.13,NNE,23,0.0,0.0,73,0.00,,,0.00,VWS V13.01,2013-09-18 03:22:00,
2013-09-17 22:27:00,72.4,64.0,30.13,NNE,23,2.7,3.1,75,0.00,,,0.00,VWS V13.01,2013-09-18 03:27:00,
2013-09-17 22:32:00,72.2,63.8,30.13,NNE,23,0.0,0.0,75,0.00,,,0.00,VWS V13.01,2013-09-18 03:32:00,
2013-09-17 22:37:00,72.0,63.3,30.13,NNE,23,2.2,2.2,74,0.00,,,0.00,VWS V13.01,2013-09-18 03:37:00,
2013-09-17 22:41:00,72.0,63.7,30.13,NNE,23,2.2,2.2,75,0.00,,,0.00,VWS V13.01,2013-09-18 03:41:00,
2013-09-17 22:46:00,72.0,63.7,30.13,NNE,23,0.0,0.0,75,0.00,,,0.00,VWS V13.01,2013-09-18 03:46:00,
2013-09-17 22:52:00,72.2,63.4,30.13,NNE,23,0.0,0.0,74,0.00,,,0.00,VWS V13.01,2013-09-18 03:52:00,
2013-09-17 22:57:00,72.4,63.2,30.13,NNE,23,0.0,0.0,73,0.00,,,0.00,VWS V13.01,2013-09-18 03:57:00,
2013-09-17 23:01:00,72.4,63.2,30.10,NNE,23,0.0,0.0,73,0.00,,,0.00,VWS V13.01,2013-09-18 04:01:00,
2013-09-17 23:06:00,72.4,62.8,30.10,NNE,23,0.0,0.0,72,0.00,,,0.00,VWS V13.01,2013-09-18 04:06:00,
2013-09-17 23:11:00,72.4,63.2,30.10,NNE,23,0.0,0.0,73,0.00,,,0.00,VWS V13.01,2013-09-18 04:11:00,
2013-09-17 23:16:00,72.2,62.7,30.13,NNE,23,0.0,0.0,72,0.00,,,0.00,VWS V13.01,2013-09-18 04:16:00,
2013-09-17 23:21:00,72.2,62.7,30.13,NNE,23,0.0,0.0,72,0.00,,,0.00,VWS V13.01,2013-09-18 04:21:00,
2013-09-17 23:26:00,72.0,62.9,30.13,NNE,23,0.0,0.0,73,0.00,,,0.00,VWS V13.01,2013-09-18 04:26:00,
2013-09-17 23:31:00,71.8,62.7,30.13,NNE,23,0.0,0.0,73,0.00,,,0.00,VWS V13.01,2013-09-18 04:31:00,
2013-09-17 23:36:00,71.5,62.8,30.13,NNE,23,0.0,0.0,74,0.00,,,0.00,VWS V13.01,2013-09-18 04:36:00,
2013-09-17 23:41:00,71.3,63.0,30.13,NNE,23,0.0,0.0,75,0.00,,,0.00,VWS V13.01,2013-09-18 04:41:00,
2013-09-17 23:46:00,71.1,63.2,30.13,NNE,23,0.0,0.0,76,0.00,,,0.00,VWS V13.01,2013-09-18 04:46:00,
2013-09-17 23:51:00,70.7,63.5,30.13,NNE,23,0.0,0.0,78,0.00,,,0.00,VWS V13.01,2013-09-18 04:51:00,
2013-09-17 23:56:00,70.6,62.6,30.13,NNE,23,2.2,2.2,76,0.00,,,0.00,VWS V13.01,2013-09-18 04:56:00,